Location: Poughquag
(41.6090°N, 73.6820°W)
Time: 09:04:59
(UTC-05:00)

Vanguard 1 - Pass Details

Date: 04 December 2023
Orbit: 653 x 3826 km, 34.3° (Epoch: 25 February)

Event Time Altitude Azimuth Distance (km) Brightness Sun altitude
Rises 20:31:08 0° 265° (W) 6,545 15.0 -45.3°
Reaches altitude 10° 20:34:53 10° 263° (W) 5,853 14.5 -46.0°
Maximum altitude 20:54:58 70° 186° (S) 3,931 12.7 -49.6°
Enters shadow 20:55:24 70° 180° (S) 3,939 12.7 -49.7°
Drops below altitude 10° 21:17:38 10° 109° (ESE) 6,483 - -53.7°
Sets 21:22:05 0° 107° (ESE) 7,242 - -54.4°
